Torna al catalogo

ATLAS F BURNER 2 R/B

AttivoSSO
NORAD 6218·ROCKET BODY·🇺🇸 United States

Lanciato Oct 2, 1972 da Vandenberg Space Force Base

Loading…

Prossimi Passaggi (prossime 24 ore)

TLE

AggiornatoSource: Space-Track

Epoca: Sep 14, 2026, 11:48 UTC

1 06218U 72076C   26257.49166823  .00000101  00000-0  33477-4 0  9990
2 06218  98.5142 345.3408 0011672  14.4677 345.6853 14.56773857859459

Traccia ATLAS F BURNER 2 R/B in tempo reale con AllMySat

Download on the App Store